Dauntless Aviation
Airports Europe Italy
LIMC
MXP

Malpensa International Airport

Milan, ITALY

Airport Info
Suggest Updated Information for this Airport

Location

Latitude / Longitude: 45°37'50"N / 8°43'41"E
  45°37.836'N / 8°43.686'E
  45.6306 / 8.7281

Nearby radio navigation aids

MAL MALPENSA VOR/DME on field.
MAL MALPENSA NDB. 346.3° 5.3nm from MAL to field.

Runway Information

Runway 17L/35R

Dimensions: 12861 x 197 ft.
Surface: ASP
 
Runway 17L
Runway 35R
Latitude: 45.642058 45.61575
Longitude: 8.730197 8.737497
Elevation: 745 ft. 745 ft.
Runway true heading: 168.2 348.2
 

Runway 17R/35L

Dimensions: 12861 x 197 ft.
Surface: ASP
 
Runway 17R
Runway 35L
Latitude: 45.645461 45.614797
Longitude: 8.718725 8.727208
Elevation: 764 ft. 764 ft.
Runway true heading: 168.2 348.2
 

Instrument Procedures

  Aircraft Parking Docking Chart : T2
  Aerodrome Ground Movement Chart
  Aerodrome Ground Movement Chart: Aircraft Code F
  Aerodrome Chart
  Aircraft Parking Docking Chart: T1

STARs (Standard Terminal Arrivals)

  Arrival Transition and amp; STAR P-RNAV
  Arrival Transition and amp; STAR

IAPs (Instrument Approach Procedures)

  Hotspot MAP (Not for Navigation)
  Low Visibility Procedures Chart
  Transition SEGMENTS to ENROUTE Rwy 35L
  Transition SEGMENTS to ENROUTE Rwy 35R
  Transition SEGMENTS to ENROUTE Rwy 17L/R
  Aerodrome Information (Textual)
  Aerodrome Obstacle Chart Type A Rwy 35R/17L
  Aerodrome Obstacle Chart Type A Rwy 35L/17R
  Precision Approach Terrain Chart Rwy 35R
  Precision Approach Terrain Chart Rwy 35L
  VOR Rwy 35R
  L Rwy 35R
  ILS Z Rwy 17L
  ILS Y Rwy 17L
  LOC Rwy 17L
  Visual Approach Chart
  VOR Rwy 17L
  ILS X Rwy 35L
  VOR Rwy 35L
  RNAV (GNSS) Rwy 35L
  RNAV (GNSS) Rwy 35R
  ILS Z Rwy 35L
  ILS Z Rwy 35R
  ILS Y Rwy 35L
  ILS Y Rwy 35R

Departure Procedures

  Omnidirectional Departure Area Rwy 35L
  Initial Climb Procedure and SID Rwy 35R
  Omnidirectional Departure Area Rwy 35R
  Initial Climb Procedures and SID Rwy 17L/R
  Initial Climb Procedures and SID P-RNAV1 Rwy 35L
  Initial Climb Procedure and SID Rwy 35L
  Initial Climb Procedures and SID P-RNAV Rwy 35R
Satellite photo at:
Airport distance calculator
From:
Weather Reports

METAR

LIMC

LIMC 201220Z 22003KT 160V290 1800 BR OVC005 13/11 Q1021 NOSIG
LIMN
7.3nm S
LIMN 201155Z 16003KT 1200 BR SCT002 BKN005 12/10 Q1020 RMK OVC VIS MIN 1200 AMB
LSZA
23.5nm N
LSZA 201220Z 21007KT 8000 NSC 18/11 Q1019 NOSIG
LIML
24.7nm E
LIML 201220Z VRB02KT 1500 BR BKN007 14/12 Q1020 NOSIG
LSZL
32.8nm N
LSZL 201150Z 24007KT 9000 NSC 16/08 Q1019 RMK BLU

TAF

LIMC
TAF LIMC 201100Z 2012/2118 VRB05KT 2500 BR BKN0010 BECMG 2019/2021 1500 BCFG BECMG 2022/2024 0400 FG OVC002 BECMG 2108/2111 3000 BR NSC
LIMN
7.3nm S
TAF LIMN 201100Z 2012/2021 VRB03KT 0700 FG BKN003 TEMPO 2012/2018 2000 BR SCT010
LSZA
23.5nm N
TAF LSZA 201125Z 2012/2021 19005KT 7000 NSC BECMG 2015/2018 4000 BR BECMG 2019/2021 2000
LIML
24.7nm E
TAF LIML 201100Z 2012/2112 VRB05KT 2500 BR BKN010 BECMG 1018/1920 0400 FG BECMG 2108/2111 3000 BR BKN012
LSZL
32.8nm N
TAF LSZL 201125Z 2012/2021 VRB03KT CAVOK BECMG 2015/2018 7000 NSC PROB40 2018/2020 4000 BR
Safelog

 

Dauntless Aviation

© 2007-2017 Dauntless Aviation, all rights reserved
Information provided via PilotNav comes from a variety of official and unofficial data sources. As errors are possible, do not use PilotNav for primary flight planning purposes. Verify any information that you receive via PilotNav with current and canonical charts and other official documents. The material in this database is subject to database copyrights held by Dauntless Aviation and may not be copied without the express permission of Dauntless Aviation - licenses for use of part of all of this data are available for purchase; enquire via the Dauntless Aviation helpdesk. A number of mechanisms and markers exist in the database to protect against and identify infringement / copyright. Automated queries against this website are stictly prohibited, and all activity is logged and analyzed.